Regional Weather Roundup
Issued by NWS

Home | Current Version | Previous Version | Text Only | Print | Product List | Glossary On
Versions: 1 2 3 4 5 6 7 8 9 10 11 12 13 14 15 16 17 18 19 20 21 22 23 24 25 26 27 28 29 30 31 32 33 34 35 36 37 38 39 40 41 42 43 44 45 46 47 48 49 50
000
ASUS43 KMKX 051000
RWRWI

WISCONSIN REGIONAL WEATHER ROUNDUP
NATIONAL WEATHER SERVICE MILWAUKEE/SULLIVAN WI
500 AM CDT TUE MAY 05 2015

NOTE: "FAIR" INDICATES FEW OR NO CLOUDS BELOW 12,000 FEET WITH NO
SIGNIFICANT WEATHER AND/OR OBSTRUCTIONS TO VISIBILITY.

WIZ001-002-006>008-014>016-023>028-051100-
NORTHWEST WISCONSIN

CITY           SKY/WX    TMP DP  RH WIND       PRES   REMARKS
SUPERIOR ARPT  CLEAR     30  29  94 CALM      30.26S
ASHLAND        CLEAR     33  31  92 SW3       30.27F
HAYWARD        CLEAR     34  30  85 CALM      30.26S
SIREN          CLEAR     33  27  77 CALM      30.23F
CUMBERLAND     CLEAR     43  28  56 NE3       30.23S
RICE LAKE      CLEAR     49  34  54 E7        30.24F
CHETEK         CLEAR     50  36  58 NE6       30.23F
LADYSMITH      PTCLDY    49  35  58 E6        30.27S
EAU CLAIRE     MOCLDY    48  39  71 NE8       30.21R
MENOMONIE      PTCLDY    48  38  69 NE5       30.21S
NEW RICHMOND   CLEAR     50  30  45 E12       30.20S
OSCEOLA        CLEAR     49  29  46 E8        30.23S
$$

WIZ003>005-009-010-017-018-051100-
NORTH CENTRAL WISCONSIN

CITY           SKY/WX    TMP DP  RH WIND       PRES   REMARKS
MANITOWISH WTR CLEAR     32  32  98 CALM      30.29S
ARBOR VITAE    CLEAR     39  35  83 CALM      30.28F
WOODRUFF       CLEAR     39  35  83 CALM      30.28F
RHINELANDER    CLEAR     39  36  89 CALM      30.29F
EAGLE RIVER    CLEAR     34  34  99 CALM      30.28F
LAND O LAKES   CLEAR     32  31  99 CALM      30.30S
PHILLIPS       CLEAR     44  34  69 E3        30.26F
TOMAHAWK       PTCLDY    32  30  94 CALM      30.28F
MEDFORD        MOCLDY    42  36  78 E7        30.25S
MERRILL        MOCLDY    39  36  89 NE5       30.27S
$$

WIZ029-030-035-036-043>047-051100-
CENTRAL WISCONSIN

CITY           SKY/WX    TMP DP  RH WIND       PRES   REMARKS
WAUSAU         CLOUDY    46  33  60 E7        30.24S
MOSINEE        CLOUDY    45  32  61 E9        30.26S
MARSHFIELD     CLOUDY    49  34  56 E10       30.23S
STEVENS POINT  CLOUDY    46  34  62 E8        30.25S
WAUPACA        CLOUDY    50  38  62 N3        30.25S
WAUTOMA        NOT AVBL
WISC RAPIDS    CLOUDY    50  33  52 E9        30.24S
CAMP DOUGLAS   NOT AVBL
$$

WIZ011>013-019>022-031-037>040-048>050-051100-
NORTHEAST WISCONSIN

CITY           SKY/WX    TMP DP  RH WIND       PRES   REMARKS
ANTIGO         MOCLDY    43  34  71 E7        30.28F
SHAWANO        CLOUDY    49  38  64 NE8       30.28S
OCONTO         CLOUDY    43  37  80 NE6       30.28S
STURGEON BAY   CLOUDY    46  32  57 NE7       30.30S
GREEN BAY      CLOUDY    50  39  66 NE9       30.26S
MANITOWOC      NOT AVBL
APPLETON       CLOUDY    48  36  61 NE8       30.25S
CLINTONVILLE   CLOUDY    45  36  70 NE6       30.26F
OSHKOSH        CLOUDY    52  37  56 E7        30.24R
$$

WIZ032>034-041-042-053>061-051100-
SOUTHWEST WISCONSIN

CITY           SKY/WX    TMP DP  RH WIND       PRES   REMARKS
LA CROSSE      CLOUDY    58  42  55 E10       30.17R
SPARTA         CLOUDY    54  38  56 E7        30.20S
VIROQUA        CLOUDY    51  44  78 E14G20    30.18R
BOSCOBEL       CLOUDY    52  48  86 NE8       30.17F
PRAIRIE DU CHI CLOUDY    53  48  81 E12       30.14S
PLATTEVILLE    CLOUDY    51  49  91 E13       30.15S
$$

WIZ056-057-062-063-064-067-068-051100-
SOUTH CENTRAL WISCONSIN

CITY           SKY/WX    TMP DP  RH WIND       PRES   REMARKS
REEDSBURG      DRIZZLE   50  44  80 E3        30.23R
BARABOO/DELLS  NOT AVBL
LONE ROCK      LGT RAIN  51  47  86 NE14      30.20S FOG
MINERAL POINT  LGT RAIN  52  46  82 E13       30.17S
MADISON        LGT RAIN  50  45  83 E6        30.22R
MIDDLETON      CLOUDY    52  46  82 E6        30.22S
WATERTOWN      DRIZZLE   49  45  85 CALM      30.23R
MONROE         LGT RAIN  50  46  87 E8        30.18S
JANESVILLE     LGT RAIN  52  48  87 E7        30.19R
$$

WIZ051-052-058>065-066-070>072-051100-
SOUTHEAST WISCONSIN

CITY           SKY/WX    TMP DP  RH WIND       PRES   REMARKS
MILWAUKEE      LGT RAIN  47  40  76 NE10      30.24R
WAUKESHA       LGT RAIN  46  41  81 NE6       30.24S
MILWAUKEE/TIMM LGT RAIN  48  37  66 NE5       30.26R
RACINE         RAIN      47  41  80 NE7       30.25R
BURLINGTON     LGT RAIN  47  44  88 NE6       30.22R
KENOSHA        LGT RAIN  49  45  86 E9        30.21F
FOND DU LAC    CLOUDY    53  34  48 E6        30.25R
SHEBOYGAN      CLOUDY    47  35  63 E6        30.27R
WEST BEND      LGT RAIN  46  37  71 E7        30.25R
JUNEAU         DRIZZLE   51  39  62 E10       30.25R
$$

LSZ147-162-051100-
LAKE SUPERIOR

STATION/POSITION TIME  TEMP    WIND        PRES    WAVE
                       AIR SEA DIR/SP/G            HT/PER
                 (UTC) (F)     (DEG/KT/KT) (MB)    (FT/S)
W MID LAKE BUOY  0850   39 35  180/  6/  6 1026.0R   0
DEVILS ISLAND    0900   53     100/  4/  4 1025.3S
PORT WING        0900   36     140/  3/  4 1024.7
SAXON HARBOR     0940   35        CALM     1024.4F
$$

LMZ867-665-643>646-051100-
LAKE MICHIGAN

STATION/POSITION TIME  TEMP    WIND        PRES    WAVE
                       AIR SEA DIR/SP/G            HT/PER
                 (UTC) (F)     (DEG/KT/KT) (MB)    (FT/S)
CHAMBERS ISLAND  0900   43      CALM  /  2 1025.7S
NORTHPORT PIER   0900   44     310/  3/  4 1025.7S
SISTER BAY       0747   47     110/  1/  6   N/A
KEWAUNEE LAKESHO 0900   47      40/ 12/ 16 1024.0R
SHEBOYGAN LAKESH 0900   44      10/ 12/ 13 1025.0R
PORT WASHINGTON  0920   51     360/  3/ 15 1025.1R
ATWATER BUOY     0900   46     360/ 10/ 10 1025.2R
MILWAUKEE LAKESH 0900   50      30/  6/  8   N/A
KENOSHA   LAKESH 0900   49     360/  7/  8 1023.7R
$$

TC  - TEMPERATURE IN CELSIUS
VSB - VISIBILITY IN STATUTE MILES
WCI - WIND CHILL INDEX
HX  - HEAT INDEX



USA.gov is the U.S. government's official web portal to all federal, state and local government web resources and services.